FW7181 Weather Reports


Display with metric or nautical units.
time (UTC)temp
F
wind
direction
speed
MPH
gust
MPH
rain 1hr
in
rain 24hr
in
rain mn
in
humidity
%
barometer
mb
20260503184615 53 87 5.0 7.0 0.00 0.00 0.00 40 1013.3
20260503184112 52 186 8.0 10.0 0.00 0.00 0.00 41 1013.5
20260503183609 53 143 3.0 5.0 0.00 0.00 0.00 40 1013.5
20260503183106 53 109 3.0 3.0 0.00 0.00 0.00 44 1013.5
20260503182605 53 300 8.0 8.0 0.00 0.00 0.00 41 1013.7
20260503182102 52 113 3.0 3.0 0.00 0.00 0.00 42 1013.6
20260503181559 52 357 9.0 10.0 0.00 0.00 0.00 40 1013.8
20260503181055 52 32 3.0 5.0 0.00 0.00 0.00 41 1013.7
20260503180553 52 354 5.0 6.0 0.00 0.00 0.00 40 1013.5
20260503180050 52 164 1.0 2.0 0.00 0.00 0.00 40 1013.7
20260503175547 53 20 7.0 9.0 0.00 0.00 0.00 39 1013.7
20260503175044 54 4 2.0 3.0 0.00 0.00 0.00 39 1013.8
20260503174541 52 189 4.0 5.0 0.00 0.00 0.00 39 1013.7
20260503174038 53 214 11.0 16.0 0.00 0.00 0.00 42 1013.9
20260503173533 52 137 1.0 2.0 0.00 0.00 0.00 43 1013.9
20260503173029 53 18 5.0 7.0 0.00 0.00 0.00 39 1014.1
20260503172521 54 180 5.0 7.0 0.00 0.00 0.00 38 1013.9
20260503172018 51 289 6.0 9.0 0.00 0.00 0.00 41 1013.8
20260503171515 51 282 7.0 8.0 0.00 0.00 0.00 39 1013.9
20260503171012 52 353 8.0 9.0 0.00 0.00 0.00 43 1013.9
20260503170508 50 189 6.0 7.0 0.00 0.00 0.00 42 1014.0
20260503150900 48 299 5.0 7.0 0.00 0.00 0.00 46 1014.8
20260503150357 47 271 3.0 5.0 0.00 0.00 0.00 49 1014.9
20260503131250 42 111 2.0 2.0 0.00 0.00 0.00 64 1015.3
20260503130748 42 353 5.0 7.0 0.00 0.00 0.00 66 1015.5
20260503130246 42 305 3.0 5.0 0.00 0.00 0.00 67 1015.6
20260503120211 32 181 2.0 2.0 0.00 0.00 0.00 90 1015.6
20260503110638 26 205 0.0 0.0 0.00 0.00 0.00 98 1015.3
20260503110136 26 207 0.0 0.0 0.00 0.00 0.00 98 1015.0
20260503081446 27 251 0.0 0.0 0.00 0.00 0.00 95 1014.4
20260503080943 28 245 0.0 0.0 0.00 0.00 0.00 95 1014.5
20260503080439 28 276 0.0 1.0 0.00 0.00 0.00 95 1014.5
20260503072916 29 269 0.0 1.0 0.00 0.00 0.00 93 1014.3
20260503072413 29 285 0.0 1.0 0.00 0.00 0.00 93 1014.0
20260503071910 29 330 1.0 1.0 0.00 0.00 0.00 92 1014.2
20260503071407 29 264 0.0 0.0 0.00 0.00 0.00 92 1013.9
20260503070903 30 267 1.0 1.0 0.00 0.00 0.00 91 1013.9
20260503070400 30 24 1.0 1.0 0.00 0.00 0.00 90 1014.0
20260503060326 32 242 0.0 0.0 0.00 0.00 0.00 85 1014.2
20260503054814 32 222 0.0 0.0 0.00 0.00 0.00 84 1014.3
20260503054310 33 221 0.0 0.0 0.00 0.00 0.00 83 1014.3
20260503053808 33 239 0.0 0.0 0.00 0.00 0.00 83 1014.3
20260503053306 33 200 0.0 0.0 0.00 0.00 0.00 83 1014.2
20260503052802 32 202 0.0 0.0 0.00 0.00 0.00 82 1014.3
20260503052259 32 220 0.0 0.0 0.00 0.00 0.00 81 1014.2
20260503051755 33 220 0.0 0.0 0.00 0.00 0.00 80 1014.4
20260503051252 33 238 0.0 0.0 0.00 0.00 0.00 79 1014.5
20260503050748 33 261 0.0 0.0 0.00 0.00 0.00 78 1014.4
20260503050245 33 234 0.0 0.0 0.00 0.00 0.00 78 1014.6
20260503045742 34 242 0.0 0.0 0.00 0.00 0.00 77 1014.5
20260503045234 34 300 1.0 1.0 0.00 0.00 0.00 77 1014.7
20260503044730 34 297 1.0 1.0 0.00 0.00 0.00 77 1014.8
20260503044227 34 231 0.0 0.0 0.00 0.00 0.00 76 1014.7
20260503043724 34 241 0.0 0.0 0.00 0.00 0.00 76 1014.8
20260503043222 34 201 0.0 0.0 0.00 0.00 0.00 76 1014.8
20260503042717 34 236 0.0 0.0 0.00 0.00 0.00 75 1014.7
20260503042214 35 229 0.0 0.0 0.00 0.00 0.00 75 1014.6
20260503041710 35 7 1.0 1.0 0.00 0.00 0.00 74 1014.7
20260503041208 35 251 0.0 0.0 0.00 0.00 0.00 75 1014.9
20260503040705 35 247 0.0 1.0 0.00 0.00 0.00 76 1014.8
20260503040203 35 273 1.0 1.0 0.00 0.00 0.00 75 1014.7
20260503035659 35 349 1.0 1.0 0.00 0.00 0.00 75 1014.7
20260503035157 34 214 0.0 1.0 0.00 0.00 0.00 77 1014.7
20260503034654 34 228 0.0 0.0 0.00 0.00 0.00 77 1014.9
20260503034151 34 187 0.0 0.0 0.00 0.00 0.00 77 1014.8
20260503033648 34 202 0.0 0.0 0.00 0.00 0.00 77 1014.8
20260503033146 34 250 0.0 1.0 0.00 0.00 0.00 78 1014.8
20260503032644 34 335 1.0 2.0 0.00 0.00 0.00 76 1014.9
20260503032143 34 240 0.0 0.0 0.00 0.00 0.00 79 1014.9
20260503031639 34 160 0.0 1.0 0.00 0.00 0.00 77 1014.7
20260503031137 34 206 0.0 0.0 0.00 0.00 0.00 76 1014.9
20260503030633 34 205 0.0 0.0 0.00 0.00 0.00 75 1015.0
20260503030130 35 272 0.0 1.0 0.00 0.00 0.00 77 1014.8
20260503025626 35 223 0.0 0.0 0.00 0.00 0.00 75 1014.9
20260503025125 35 198 0.0 0.0 0.00 0.00 0.00 75 1014.9
20260503024621 35 196 0.0 0.0 0.00 0.00 0.00 75 1014.7
20260503024118 35 215 0.0 0.0 0.00 0.00 0.00 74 1015.0
20260503023615 36 225 0.0 0.0 0.00 0.00 0.00 72 1014.8
20260503023112 35 278 0.0 1.0 0.00 0.00 0.00 72 1014.9
20260503022607 35 216 0.0 1.0 0.00 0.00 0.00 74 1015.0
20260503022102 35 272 0.0 1.0 0.00 0.00 0.00 72 1014.9
20260503021600 36 248 0.0 1.0 0.00 0.00 0.00 74 1015.0
20260503021056 36 37 0.0 1.0 0.00 0.00 0.00 72 1014.9
20260503020553 36 253 0.0 0.0 0.00 0.00 0.00 72 1014.8
20260503020050 36 188 0.0 0.0 0.00 0.00 0.00 73 1014.7
20260503015547 37 174 0.0 0.0 0.00 0.00 0.00 70 1014.7
20260503015045 37 204 0.0 0.0 0.00 0.00 0.00 72 1014.7
20260503014540 37 292 1.0 1.0 0.00 0.00 0.00 67 1014.8
20260503014038 37 188 0.0 0.0 0.00 0.00 0.00 72 1014.8
20260503013535 38 218 0.0 0.0 0.00 0.00 0.00 68 1014.6
20260503013033 38 159 1.0 1.0 0.00 0.00 0.00 71 1014.9
20260503012530 38 251 0.0 1.0 0.00 0.00 0.00 64 1014.8
20260503012026 37 337 3.0 3.0 0.00 0.00 0.00 69 1014.8
20260503011523 37 201 0.0 0.0 0.00 0.00 0.00 73 1014.6
20260503011021 37 207 0.0 0.0 0.00 0.00 0.00 72 1014.7
20260503010516 38 209 0.0 0.0 0.00 0.00 0.00 70 1014.6
20260503010015 38 185 0.0 1.0 0.00 0.00 0.00 66 1014.6
20260503005511 38 208 0.0 0.0 0.00 0.00 0.00 64 1014.6
20260503005009 38 248 0.0 0.0 0.00 0.00 0.00 70 1014.5
20260503004504 38 208 1.0 1.0 0.00 0.00 0.00 69 1014.6
20260503004003 38 246 0.0 1.0 0.00 0.00 0.00 66 1014.3
20260503003459 39 244 0.0 0.0 0.00 0.00 0.00 64 1014.2
20260503002956 39 340 1.0 2.0 0.00 0.00 0.00 61 1014.1
20260503002453 40 342 2.0 2.0 0.00 0.00 0.00 61 1014.2
20260503001949 40 315 2.0 2.0 0.00 0.00 0.00 60 1014.3
20260503001446 40 315 2.0 2.0 0.00 0.00 0.00 60 1014.2
20260503000944 40 342 3.0 6.0 0.00 0.00 0.00 61 1014.0
20260503000441 40 335 3.0 5.0 0.00 0.00 0.00 60 1014.1
20260502235938 40 332 4.0 6.0 0.00 0.00 0.00 60 1014.1
20260502235435 40 0 4.0 5.0 0.00 0.00 0.00 60 1014.2
20260502234932 40 332 4.0 6.0 0.00 0.00 0.00 60 1014.1
20260502234429 40 308 1.0 2.0 0.00 0.00 0.00 62 1014.1
20260502233926 40 353 2.0 2.0 0.00 0.00 0.00 62 1014.0
20260502233421 40 327 1.0 2.0 0.00 0.00 0.00 65 1014.1
20260502232918 40 177 1.0 1.0 0.00 0.00 0.00 72 1013.9
20260502232414 40 235 0.0 1.0 0.00 0.00 0.00 69 1014.0
20260502231912 40 241 0.0 0.0 0.00 0.00 0.00 69 1014.0
20260502231409 40 237 0.0 1.0 0.00 0.00 0.00 66 1014.0
20260502230907 40 280 2.0 2.0 0.00 0.00 0.00 66 1014.1
20260502230405 40 332 2.0 2.0 0.00 0.00 0.00 68 1014.0
20260502225902 40 286 4.0 5.0 0.00 0.00 0.00 67 1013.7
20260502225358 41 22 1.0 1.0 0.00 0.00 0.00 67 1013.9
20260502224855 41 0 2.0 3.0 0.00 0.00 0.00 67 1014.0
20260502224351 41 314 2.0 2.0 0.00 0.00 0.00 69 1013.7
20260502223849 41 308 1.0 2.0 0.00 0.00 0.00 68 1013.8
20260502223347 41 26 1.0 3.0 0.00 0.00 0.00 68 1013.9
20260502222844 41 208 0.0 0.0 0.00 0.00 0.00 68 1013.8
20260502222342 42 346 3.0 5.0 0.00 0.00 0.00 66 1013.8
20260502221837 42 30 3.0 3.0 0.00 0.00 0.00 66 1013.7
20260502221334 42 30 3.0 3.0 0.00 0.00 0.00 66 1013.7
20260502220831 42 71 2.0 3.0 0.00 0.00 0.00 65 1013.7
20260502220327 42 56 3.0 5.0 0.00 0.00 0.00 64 1013.9
20260502215823 42 20 2.0 3.0 0.00 0.00 0.00 64 1013.7
20260502215321 42 3 2.0 2.0 0.00 0.00 0.00 64 1013.8
20260502214818 42 357 5.0 8.0 0.00 0.00 0.00 64 1013.5
20260502214315 42 242 0.0 0.0 0.00 0.00 0.00 65 1013.8
20260502213812 42 203 2.0 2.0 0.00 0.00 0.00 66 1013.8
20260502213309 42 144 1.0 2.0 0.00 0.00 0.00 65 1013.7
20260502212808 42 118 2.0 3.0 0.00 0.00 0.00 67 1013.6
20260502212306 42 306 7.0 8.0 0.00 0.00 0.00 66 1013.8
20260502211802 43 40 2.0 3.0 0.00 0.00 0.00 66 1013.7
20260502211258 42 231 0.0 0.0 0.00 0.00 0.00 65 1013.6
20260502210755 42 349 9.0 18.0 0.00 0.00 0.00 65 1013.6
20260502210253 42 276 3.0 5.0 0.00 0.00 0.00 67 1013.6
20260502205750 42 356 4.0 5.0 0.00 0.00 0.00 67 1013.7
20260502205246 42 326 3.0 8.0 0.00 0.00 0.00 66 1013.6
20260502204743 42 46 9.0 16.0 0.00 0.00 0.00 65 1013.4
20260502204240 42 335 3.0 5.0 0.00 0.00 0.00 66 1013.6
20260502203732 43 324 3.0 3.0 0.00 0.00 0.00 67 1013.5
20260502203230 42 134 0.0 1.0 0.00 0.00 0.00 67 1013.5
20260502202723 42 332 11.0 15.0 0.00 0.00 0.00 67 1013.6
20260502202222 42 334 9.0 11.0 0.00 0.00 0.00 66 1013.5
20260502201719 43 353 4.0 5.0 0.00 0.00 0.00 67 1013.7
20260502201216 43 277 4.0 5.0 0.00 0.00 0.00 67 1013.5
20260502200712 42 345 3.0 3.0 0.00 0.00 0.00 68 1013.6
20260502200208 42 348 10.0 13.0 0.00 0.00 0.00 68 1013.5
20260502195707 41 38 8.0 10.0 0.00 0.00 0.00 69 1013.5
20260502195203 41 10 7.0 8.0 0.00 0.00 0.00 70 1013.7
20260502194700 41 349 12.0 15.0 0.00 0.00 0.00 71 1013.8
20260502194156 41 17 9.0 11.0 0.00 0.00 0.00 70 1013.9
20260502193653 41 335 5.0 7.0 0.00 0.00 0.00 70 1013.9
20260502193150 40 266 3.0 3.0 0.00 0.00 0.00 71 1014.0
20260502192645 41 336 7.0 9.0 0.00 0.00 0.00 70 1014.1
20260502192143 41 326 7.0 13.0 0.00 0.00 0.00 69 1014.2
20260502191639 42 340 8.0 10.0 0.00 0.00 0.00 67 1014.1
20260502191131 42 230 0.0 1.0 0.00 0.00 0.00 67 1014.0
20260502190628 42 352 5.0 6.0 0.00 0.00 0.00 67 1014.3
20260502190127 42 250 1.0 2.0 0.00 0.00 0.00 68 1014.4
20260502185620 42 290 6.0 7.0 0.00 0.00 0.00 69 1014.4
20260502185118 41 41 4.0 6.0 0.00 0.00 0.00 69 1014.4